Location: Leo
(52.0556°N, 112.3605°W)
Time: 09:53:08
(UTC+00:00)

FO-29 - Pass Details

Date: 29 November 2023
Orbit: 799 x 1322 km, 98.6° (Epoch: 01 March)

Event Time Altitude Azimuth Distance (km) Brightness Sun altitude
Rises 12:56:52 0° 11° (N) 3,957 12.7 -19.9°
Reaches altitude 10° 12:59:58 10° 357° (N) 3,077 12.0 -19.5°
Enters shadow 13:04:50 22° 313° (NW) 2,406 11.1 -18.7°
